Location: Ca�n Batista
(41.4099°N, 1.7752°E)
Time: 15:14:08
(UTC+00:00)

Cosmos 1666 - Pass Details

Date: 03 March 2021
Orbit: 497 x 518 km, 82.5° (Epoch: 21 April)

Event Time Altitude Azimuth Distance (km) Brightness Sun altitude
Rises 18:27:04 0° 150° (SSE) 2,570 5.9 -8.5°
Reaches altitude 10° 18:29:43 10° 129° (SE) 1,694 4.9 -9.0°
Maximum altitude 18:32:10 17° 88° (E) 1,318 4.1 -9.4°
Drops below altitude 10° 18:34:38 10° 46° (NE) 1,707 4.9 -9.9°
Sets 18:37:18 0° 26° (NNE) 2,600 6.0 -10.4°
